Time,TemperatureF,DewpointF,PressureIn,WindDirection,WindDirectionDegrees,WindSpeedMPH,WindSpeedGustMPH,Humidity,HourlyPrecipIn,Conditions,Clouds,dailyrainin,SoftwareType,DateUTC
2013-02-05 00:02:00,30.7,27.3,29.99,NNW,348,0.0,0.0,87,0.00,,,0.00,WeatherCatV1.02B3,2013-02-05 06:02:00,
2013-02-05 00:07:00,30.6,27.2,29.99,NNW,348,0.0,0.0,87,0.00,,,0.00,WeatherCatV1.02B3,2013-02-05 06:07:00,
2013-02-05 00:12:00,30.4,27.0,29.99,NNW,348,0.0,0.0,87,0.00,,,0.00,WeatherCatV1.02B3,2013-02-05 06:12:00,
2013-02-05 00:17:00,30.2,27.1,29.99,NNW,348,0.0,0.0,88,0.00,,,0.00,WeatherCatV1.02B3,2013-02-05 06:17:00,
2013-02-05 00:22:00,30.0,26.9,29.99,NNW,348,0.0,0.0,88,0.00,,,0.00,WeatherCatV1.02B3,2013-02-05 06:22:00,
2013-02-05 00:27:00,29.8,27.0,29.99,NNW,348,0.0,0.0,89,0.00,,,0.00,WeatherCatV1.02B3,2013-02-05 06:27:00,
2013-02-05 00:32:00,29.6,27.0,29.99,NNW,348,0.0,0.0,90,0.00,,,0.00,WeatherCatV1.02B3,2013-02-05 06:32:00,
2013-02-05 00:37:00,29.5,26.9,29.99,NNW,348,0.0,0.0,90,0.00,,,0.00,WeatherCatV1.02B3,2013-02-05 06:37:00,
2013-02-05 00:42:00,29.3,26.5,29.99,NNW,348,0.0,0.0,89,0.00,,,0.00,WeatherCatV1.02B3,2013-02-05 06:42:00,
2013-02-05 00:47:00,29.0,26.4,29.99,NNW,348,0.0,0.0,90,0.00,,,0.00,WeatherCatV1.02B3,2013-02-05 06:47:00,
2013-02-05 00:52:00,28.8,26.2,29.99,NNW,348,0.0,0.0,90,0.00,,,0.00,WeatherCatV1.02B3,2013-02-05 06:52:00,
2013-02-05 00:57:00,28.7,26.1,29.98,NNW,348,0.0,0.0,90,0.00,,,0.00,WeatherCatV1.02B3,2013-02-05 06:57:00,
2013-02-05 01:02:00,28.5,25.9,29.98,NNW,348,0.0,0.0,90,0.00,,,0.00,WeatherCatV1.02B3,2013-02-05 07:02:00,
2013-02-05 01:07:00,28.3,25.8,29.98,NNW,348,0.0,0.0,90,0.00,,,0.00,WeatherCatV1.02B3,2013-02-05 07:07:00,
2013-02-05 01:12:00,28.3,25.8,29.98,NNW,348,0.0,0.0,90,0.00,,,0.00,WeatherCatV1.02B3,2013-02-05 07:12:00,
2013-02-05 01:17:00,28.1,25.8,29.98,NNW,348,0.0,0.0,91,0.00,,,0.00,WeatherCatV1.02B3,2013-02-05 07:17:00,
2013-02-05 01:22:00,28.0,25.7,29.98,NNW,348,0.0,0.0,91,0.00,,,0.00,WeatherCatV1.02B3,2013-02-05 07:22:00,
2013-02-05 01:27:00,28.0,25.7,29.98,NNW,348,0.0,0.0,91,0.00,,,0.00,WeatherCatV1.02B3,2013-02-05 07:27:00,
2013-02-05 01:32:00,27.9,25.9,29.98,NNW,348,0.0,0.0,92,0.00,,,0.00,WeatherCatV1.02B3,2013-02-05 07:32:00,
2013-02-05 01:37:00,27.7,25.7,29.98,NNW,348,0.0,0.0,92,0.00,,,0.00,WeatherCatV1.02B3,2013-02-05 07:37:00,
2013-02-05 01:42:00,27.6,25.6,29.98,NNW,348,0.0,0.0,92,0.00,,,0.00,WeatherCatV1.02B3,2013-02-05 07:42:00,
2013-02-05 01:47:00,27.6,25.6,29.98,NNW,348,0.0,0.0,92,0.00,,,0.00,WeatherCatV1.02B3,2013-02-05 07:47:00,
2013-02-05 01:52:00,27.6,25.6,29.98,NNW,348,0.0,0.0,92,0.00,,,0.00,WeatherCatV1.02B3,2013-02-05 07:52:00,
2013-02-05 01:57:00,27.5,25.5,29.98,NNW,348,0.0,0.0,92,0.00,,,0.00,WeatherCatV1.02B3,2013-02-05 07:57:00,
2013-02-05 02:02:00,27.5,25.5,29.98,NNW,348,0.0,0.0,92,0.00,,,0.00,WeatherCatV1.02B3,2013-02-05 08:02:00,
2013-02-05 02:07:00,27.4,25.4,29.97,NNW,348,0.0,0.0,92,0.00,,,0.00,WeatherCatV1.02B3,2013-02-05 08:07:00,
2013-02-05 02:12:00,27.3,25.3,29.97,NNW,348,0.0,0.0,92,0.00,,,0.00,WeatherCatV1.02B3,2013-02-05 08:12:00,
2013-02-05 02:17:00,27.3,25.3,29.97,NNW,348,0.0,0.0,92,0.00,,,0.00,WeatherCatV1.02B3,2013-02-05 08:17:00,
2013-02-05 02:22:00,27.3,25.5,29.97,NNW,348,0.0,0.0,93,0.00,,,0.00,WeatherCatV1.02B3,2013-02-05 08:22:00,
2013-02-05 02:27:00,27.3,25.5,29.98,NNW,348,0.0,0.0,93,0.00,,,0.00,WeatherCatV1.02B3,2013-02-05 08:27:00,
2013-02-05 02:32:00,27.3,25.5,29.98,NNW,348,0.0,0.0,93,0.00,,,0.00,WeatherCatV1.02B3,2013-02-05 08:32:00,
2013-02-05 02:37:00,27.2,25.5,29.98,NNW,348,0.0,0.0,93,0.00,,,0.00,WeatherCatV1.02B3,2013-02-05 08:37:00,
2013-02-05 02:42:00,27.2,25.5,29.98,NNW,348,0.0,0.0,93,0.00,,,0.00,WeatherCatV1.02B3,2013-02-05 08:42:00,
2013-02-05 02:47:00,27.2,25.5,29.97,NNW,348,0.0,0.0,93,0.00,,,0.00,WeatherCatV1.02B3,2013-02-05 08:47:00,
2013-02-05 02:52:00,27.2,25.5,29.97,NNW,348,0.0,0.0,93,0.00,,,0.00,WeatherCatV1.02B3,2013-02-05 08:52:00,
2013-02-05 02:57:00,27.1,25.4,29.97,NNW,348,0.0,0.0,93,0.00,,,0.00,WeatherCatV1.02B3,2013-02-05 08:57:00,
2013-02-05 03:02:00,27.1,25.4,29.97,NNW,348,0.0,0.0,93,0.00,,,0.00,WeatherCatV1.02B3,2013-02-05 09:02:00,
2013-02-05 03:07:00,27.0,25.3,29.98,NNW,348,0.0,0.0,93,0.00,,,0.00,WeatherCatV1.02B3,2013-02-05 09:07:00,
2013-02-05 03:12:00,27.0,25.3,29.98,NNW,348,0.0,0.0,93,0.00,,,0.00,WeatherCatV1.02B3,2013-02-05 09:12:00,
2013-02-05 03:17:00,26.9,25.2,29.97,NNW,348,0.0,0.0,93,0.00,,,0.00,WeatherCatV1.02B3,2013-02-05 09:17:00,
2013-02-05 03:22:00,26.9,25.2,29.98,NNW,348,0.0,0.0,93,0.00,,,0.00,WeatherCatV1.02B3,2013-02-05 09:22:00,
2013-02-05 03:27:00,26.8,25.1,29.97,NNW,348,0.0,0.0,93,0.00,,,0.00,WeatherCatV1.02B3,2013-02-05 09:27:00,
2013-02-05 03:32:00,26.7,25.2,29.97,NNW,348,0.0,0.0,94,0.00,,,0.00,WeatherCatV1.02B3,2013-02-05 09:32:00,
2013-02-05 03:37:00,26.6,24.9,29.98,NNW,348,0.0,0.0,93,0.00,,,0.00,WeatherCatV1.02B3,2013-02-05 09:37:00,
2013-02-05 03:42:00,26.6,24.9,29.98,NNW,348,0.0,0.0,93,0.00,,,0.00,WeatherCatV1.02B3,2013-02-05 09:42:00,
2013-02-05 03:47:00,26.5,24.8,29.98,NNW,348,0.0,0.0,93,0.00,,,0.00,WeatherCatV1.02B3,2013-02-05 09:47:00,
2013-02-05 03:52:00,26.4,24.7,29.98,NNW,348,0.0,0.0,93,0.00,,,0.00,WeatherCatV1.02B3,2013-02-05 09:52:00,
2013-02-05 03:53:00,26.4,24.7,29.98,NNW,348,0.0,0.0,93,0.00,,,0.00,WeatherCatV1.02B3,2013-02-05 09:53:00,
2013-02-05 03:58:00,26.3,24.6,29.98,NNW,348,0.0,0.0,93,0.00,,,0.00,WeatherCatV1.02B3,2013-02-05 09:58:00,
2013-02-05 04:03:00,26.2,24.5,29.98,NNW,348,0.0,0.0,93,0.00,,,0.00,WeatherCatV1.02B3,2013-02-05 10:03:00,
2013-02-05 04:08:00,26.1,24.4,29.98,NNW,348,0.0,0.0,93,0.00,,,0.00,WeatherCatV1.02B3,2013-02-05 10:08:00,
2013-02-05 04:13:00,26.1,24.6,29.98,NNW,348,0.0,0.0,94,0.00,,,0.00,WeatherCatV1.02B3,2013-02-05 10:13:00,
2013-02-05 04:18:00,26.0,24.3,29.99,NNW,348,0.0,0.0,93,0.00,,,0.00,WeatherCatV1.02B3,2013-02-05 10:18:00,
2013-02-05 04:23:00,25.9,24.4,29.99,NNW,348,0.0,0.0,94,0.00,,,0.00,WeatherCatV1.02B3,2013-02-05 10:23:00,
2013-02-05 04:28:00,25.8,24.3,29.99,NNW,348,0.0,0.0,94,0.00,,,0.00,WeatherCatV1.02B3,2013-02-05 10:28:00,
2013-02-05 04:33:00,25.8,24.3,29.98,NNW,348,0.0,0.0,94,0.00,,,0.00,WeatherCatV1.02B3,2013-02-05 10:33:00,
2013-02-05 04:38:00,25.7,24.2,29.98,NNW,348,0.0,0.0,94,0.00,,,0.00,WeatherCatV1.02B3,2013-02-05 10:38:00,
2013-02-05 04:43:00,25.7,24.2,29.99,NNW,348,0.0,0.0,94,0.00,,,0.00,WeatherCatV1.02B3,2013-02-05 10:43:00,
2013-02-05 04:48:00,25.6,24.1,29.99,NNW,348,0.0,0.0,94,0.00,,,0.00,WeatherCatV1.02B3,2013-02-05 10:48:00,
2013-02-05 04:53:00,25.6,24.1,29.99,NNW,348,0.0,0.0,94,0.00,,,0.00,WeatherCatV1.02B3,2013-02-05 10:53:00,
2013-02-05 04:58:00,25.6,24.1,29.99,NNW,348,0.0,0.0,94,0.00,,,0.00,WeatherCatV1.02B3,2013-02-05 10:58:00,
2013-02-05 05:03:00,25.8,24.3,30.00,NNW,348,0.0,0.0,94,0.00,,,0.00,WeatherCatV1.02B3,2013-02-05 11:03:00,
2013-02-05 05:08:00,25.9,24.4,30.00,NNW,348,0.0,0.0,94,0.00,,,0.00,WeatherCatV1.02B3,2013-02-05 11:08:00,
2013-02-05 05:13:00,25.8,24.3,30.00,NNW,348,0.0,0.0,94,0.00,,,0.00,WeatherCatV1.02B3,2013-02-05 11:13:00,
2013-02-05 05:18:00,25.7,24.2,30.00,NNW,348,0.0,0.0,94,0.00,,,0.00,WeatherCatV1.02B3,2013-02-05 11:18:00,
2013-02-05 05:23:00,25.6,24.1,29.99,NNW,348,0.0,0.0,94,0.00,,,0.00,WeatherCatV1.02B3,2013-02-05 11:23:00,
2013-02-05 05:28:00,25.4,23.9,29.99,NNW,348,0.0,0.0,94,0.00,,,0.00,WeatherCatV1.02B3,2013-02-05 11:28:00,
2013-02-05 05:33:00,25.3,23.8,29.99,NNW,348,0.0,0.0,94,0.00,,,0.00,WeatherCatV1.02B3,2013-02-05 11:33:00,
2013-02-05 05:38:00,25.2,23.7,29.99,NNW,348,0.0,0.0,94,0.00,,,0.00,WeatherCatV1.02B3,2013-02-05 11:38:00,
2013-02-05 05:43:00,25.2,23.7,29.99,NNW,348,0.0,0.0,94,0.00,,,0.00,WeatherCatV1.02B3,2013-02-05 11:43:00,
2013-02-05 05:48:00,25.1,23.6,29.99,NNW,348,0.0,0.0,94,0.00,,,0.00,WeatherCatV1.02B3,2013-02-05 11:48:00,
2013-02-05 05:53:00,25.1,23.6,29.99,NNW,348,0.0,0.0,94,0.00,,,0.00,WeatherCatV1.02B3,2013-02-05 11:53:00,
2013-02-05 05:58:00,25.1,23.6,30.00,NNW,348,0.0,0.0,94,0.00,,,0.00,WeatherCatV1.02B3,2013-02-05 11:58:00,
2013-02-05 06:03:00,25.1,23.6,30.00,NNW,348,0.0,0.0,94,0.00,,,0.00,WeatherCatV1.02B3,2013-02-05 12:03:00,
2013-02-05 06:08:00,25.1,23.6,30.00,NNW,348,0.0,0.0,94,0.00,,,0.00,WeatherCatV1.02B3,2013-02-05 12:08:00,
2013-02-05 06:13:00,25.0,23.5,30.00,NNW,348,0.0,0.0,94,0.00,,,0.00,WeatherCatV1.02B3,2013-02-05 12:13:00,
2013-02-05 06:18:00,24.9,23.4,30.00,NNW,348,0.0,0.0,94,0.00,,,0.00,WeatherCatV1.02B3,2013-02-05 12:18:00,
2013-02-05 06:23:00,24.9,23.4,30.00,NNW,348,0.0,0.0,94,0.00,,,0.00,WeatherCatV1.02B3,2013-02-05 12:23:00,
2013-02-05 06:28:00,24.8,23.3,30.00,NNW,348,0.0,0.0,94,0.00,,,0.00,WeatherCatV1.02B3,2013-02-05 12:28:00,
2013-02-05 06:33:00,24.8,23.3,30.00,NNW,348,0.0,0.0,94,0.00,,,0.00,WeatherCatV1.02B3,2013-02-05 12:33:00,
2013-02-05 06:38:00,24.7,23.2,30.00,NNW,348,0.0,0.0,94,0.00,,,0.00,WeatherCatV1.02B3,2013-02-05 12:38:00,
2013-02-05 06:43:00,24.7,23.2,30.01,NNW,348,0.0,0.0,94,0.00,,,0.00,WeatherCatV1.02B3,2013-02-05 12:43:00,
2013-02-05 06:48:00,24.7,23.2,30.01,NNW,348,0.0,0.0,94,0.00,,,0.00,WeatherCatV1.02B3,2013-02-05 12:48:00,
2013-02-05 06:53:00,24.7,23.2,30.01,NNW,348,0.0,0.0,94,0.00,,,0.00,WeatherCatV1.02B3,2013-02-05 12:53:00,
2013-02-05 06:58:00,24.7,23.2,30.01,NNW,348,0.0,0.0,94,0.00,,,0.00,WeatherCatV1.02B3,2013-02-05 12:58:00,
2013-02-05 07:03:00,24.6,23.1,30.01,NNW,348,0.0,0.0,94,0.00,,,0.00,WeatherCatV1.02B3,2013-02-05 13:03:00,
2013-02-05 07:08:00,24.6,23.1,30.01,NNW,348,0.0,0.0,94,0.00,,,0.00,WeatherCatV1.02B3,2013-02-05 13:08:00,
2013-02-05 07:13:00,24.6,23.1,30.01,NNW,348,0.0,0.0,94,0.00,,,0.00,WeatherCatV1.02B3,2013-02-05 13:13:00,
2013-02-05 07:18:00,24.6,23.1,30.02,NNW,348,0.0,0.0,94,0.00,,,0.00,WeatherCatV1.02B3,2013-02-05 13:18:00,
2013-02-05 07:23:00,24.6,23.4,30.02,NNW,348,0.0,0.0,95,0.00,,,0.00,WeatherCatV1.02B3,2013-02-05 13:23:00,
2013-02-05 07:28:00,24.7,23.5,30.02,NNW,348,0.0,0.0,95,0.00,,,0.00,WeatherCatV1.02B3,2013-02-05 13:28:00,
2013-02-05 07:33:00,24.7,23.5,30.02,NNW,348,0.0,0.0,95,0.00,,,0.00,WeatherCatV1.02B3,2013-02-05 13:33:00,
2013-02-05 07:38:00,24.7,23.5,30.02,NNW,348,0.0,0.0,95,0.00,,,0.00,WeatherCatV1.02B3,2013-02-05 13:38:00,
2013-02-05 07:43:00,24.9,23.7,30.02,NNW,348,0.0,0.0,95,0.00,,,0.00,WeatherCatV1.02B3,2013-02-05 13:43:00,
2013-02-05 07:48:00,25.2,24.0,30.03,NNW,348,0.0,0.0,95,0.00,,,0.00,WeatherCatV1.02B3,2013-02-05 13:48:00,
2013-02-05 07:53:00,25.8,24.8,30.03,NNW,348,0.0,0.0,96,0.00,,,0.00,WeatherCatV1.02B3,2013-02-05 13:53:00,
2013-02-05 07:58:00,26.3,25.3,30.03,NNW,348,0.0,0.0,96,0.00,,,0.00,WeatherCatV1.02B3,2013-02-05 13:58:00,
2013-02-05 08:03:00,26.7,25.7,30.03,NNW,348,0.0,0.0,96,0.00,,,0.00,WeatherCatV1.02B3,2013-02-05 14:03:00,
2013-02-05 08:08:00,27.6,26.6,30.04,NNW,348,0.0,0.0,96,0.00,,,0.00,WeatherCatV1.02B3,2013-02-05 14:08:00,
2013-02-05 08:13:00,28.6,27.9,30.04,NNW,348,0.0,0.0,97,0.00,,,0.00,WeatherCatV1.02B3,2013-02-05 14:13:00,
2013-02-05 08:18:00,29.3,28.6,30.04,NNW,348,0.0,0.0,97,0.00,,,0.00,WeatherCatV1.02B3,2013-02-05 14:18:00,
2013-02-05 08:23:00,30.1,29.4,30.04,NNW,348,0.0,0.0,97,0.00,,,0.00,WeatherCatV1.02B3,2013-02-05 14:23:00,
2013-02-05 08:28:00,31.0,30.2,30.04,NNW,348,0.0,1.0,97,0.00,,,0.00,WeatherCatV1.02B3,2013-02-05 14:28:00,
2013-02-05 08:33:00,32.3,31.5,30.04,NNW,348,1.0,2.0,97,0.00,,,0.00,WeatherCatV1.02B3,2013-02-05 14:33:00,
2013-02-05 08:38:00,33.5,33.0,30.04,NNW,348,1.0,1.0,98,0.00,,,0.00,WeatherCatV1.02B3,2013-02-05 14:38:00,
2013-02-05 08:43:00,34.6,34.1,30.04,ESE,115,1.0,2.0,98,0.00,,,0.00,WeatherCatV1.02B3,2013-02-05 14:43:00,
2013-02-05 08:48:00,35.6,35.1,30.04,ESE,115,1.0,3.0,98,0.00,,,0.00,WeatherCatV1.02B3,2013-02-05 14:48:00,
2013-02-05 08:53:00,36.5,36.0,30.05,ESE,115,2.0,2.0,98,0.00,,,0.00,WeatherCatV1.02B3,2013-02-05 14:53:00,
2013-02-05 08:58:00,37.5,36.5,30.05,South,177,0.0,4.0,96,0.00,,,0.00,WeatherCatV1.02B3,2013-02-05 14:58:00,
2013-02-05 09:03:00,38.4,36.8,30.05,South,177,0.0,2.0,94,0.00,,,0.00,WeatherCatV1.02B3,2013-02-05 15:03:00,
2013-02-05 09:08:00,39.2,36.8,30.05,South,177,0.0,2.0,91,0.00,,,0.00,WeatherCatV1.02B3,2013-02-05 15:08:00,
2013-02-05 09:13:00,40.0,37.0,30.05,South,175,0.0,1.0,89,0.00,,,0.00,WeatherCatV1.02B3,2013-02-05 15:13:00,
2013-02-05 09:18:00,40.9,37.6,30.05,South,175,0.0,0.0,88,0.00,,,0.00,WeatherCatV1.02B3,2013-02-05 15:18:00,
2013-02-05 09:23:00,41.7,37.5,30.05,SE,133,3.0,5.0,85,0.00,,,0.00,WeatherCatV1.02B3,2013-02-05 15:23:00,
2013-02-05 09:28:00,42.5,37.7,30.05,SSW,213,3.0,3.0,83,0.00,,,0.00,WeatherCatV1.02B3,2013-02-05 15:28:00,
2013-02-05 09:33:00,43.2,37.5,30.05,SSW,210,1.0,4.0,80,0.00,,,0.00,WeatherCatV1.02B3,2013-02-05 15:33:00,
2013-02-05 09:38:00,43.7,37.6,30.06,South,188,3.0,5.0,79,0.00,,,0.00,WeatherCatV1.02B3,2013-02-05 15:38:00,
2013-02-05 09:43:00,44.3,37.9,30.06,South,186,2.0,5.0,78,0.00,,,0.00,WeatherCatV1.02B3,2013-02-05 15:43:00,
2013-02-05 09:48:00,44.9,38.1,30.06,WSW,254,3.0,6.0,77,0.00,,,0.00,WeatherCatV1.02B3,2013-02-05 15:48:00,
2013-02-05 09:53:00,45.5,38.4,30.05,South,188,7.0,7.0,76,0.00,,,0.00,WeatherCatV1.02B3,2013-02-05 15:53:00,
2013-02-05 09:58:00,46.1,38.3,30.05,WSW,247,8.0,8.0,74,0.00,,,0.00,WeatherCatV1.02B3,2013-02-05 15:58:00,
2013-02-05 10:03:00,46.6,38.4,30.06,SW,214,5.0,8.0,73,0.00,,,0.00,WeatherCatV1.02B3,2013-02-05 16:03:00,
2013-02-05 10:08:00,47.1,38.9,30.06,SSW,202,4.0,5.0,73,0.00,,,0.00,WeatherCatV1.02B3,2013-02-05 16:08:00,
2013-02-05 10:13:00,47.8,38.9,30.06,SSW,205,3.0,3.0,71,0.00,,,0.00,WeatherCatV1.02B3,2013-02-05 16:13:00,
2013-02-05 10:18:00,48.5,39.2,30.06,SSW,205,3.0,6.0,70,0.00,,,0.00,WeatherCatV1.02B3,2013-02-05 16:18:00,
2013-02-05 10:23:00,49.2,39.8,30.06,WNW,283,4.0,4.0,70,0.00,,,0.00,WeatherCatV1.02B3,2013-02-05 16:23:00,
2013-02-05 10:28:00,49.8,38.9,30.06,WSW,243,4.0,5.0,66,0.00,,,0.00,WeatherCatV1.02B3,2013-02-05 16:28:00,
2013-02-05 10:33:00,50.3,39.4,30.06,SSW,213,3.0,7.0,66,0.00,,,0.00,WeatherCatV1.02B3,2013-02-05 16:33:00,
2013-02-05 10:38:00,50.7,39.4,30.06,SSW,213,4.0,5.0,65,0.00,,,0.00,WeatherCatV1.02B3,2013-02-05 16:38:00,
2013-02-05 10:43:00,51.3,39.9,30.06,SW,224,5.0,9.0,65,0.00,,,0.00,WeatherCatV1.02B3,2013-02-05 16:43:00,
2013-02-05 10:48:00,51.7,39.1,30.06,SSW,211,6.0,6.0,62,0.00,,,0.00,WeatherCatV1.02B3,2013-02-05 16:48:00,
2013-02-05 10:53:00,52.2,38.7,30.06,SW,227,6.0,10.0,60,0.00,,,0.00,WeatherCatV1.02B3,2013-02-05 16:53:00,
2013-02-05 10:58:00,52.8,40.1,30.06,WSW,255,1.0,4.0,62,0.00,,,0.00,WeatherCatV1.02B3,2013-02-05 16:58:00,
2013-02-05 11:03:00,53.5,40.0,30.06,SW,236,4.0,6.0,60,0.00,,,0.00,WeatherCatV1.02B3,2013-02-05 17:03:00,
2013-02-05 11:08:00,54.1,39.2,30.06,SW,235,2.0,9.0,57,0.00,,,0.00,WeatherCatV1.02B3,2013-02-05 17:08:00,
2013-02-05 11:13:00,54.6,38.8,30.06,WSW,242,3.0,9.0,55,0.00,,,0.00,WeatherCatV1.02B3,2013-02-05 17:13:00,
2013-02-05 11:18:00,55.0,39.1,30.06,SW,214,3.0,5.0,55,0.00,,,0.00,WeatherCatV1.02B3,2013-02-05 17:18:00,
2013-02-05 11:23:00,55.7,38.8,30.05,West,261,6.0,9.0,53,0.00,,,0.00,WeatherCatV1.02B3,2013-02-05 17:23:00,
2013-02-05 11:28:00,56.1,38.2,30.05,WSW,250,6.0,9.0,51,0.00,,,0.00,WeatherCatV1.02B3,2013-02-05 17:28:00,
2013-02-05 11:33:00,56.6,38.7,30.05,South,189,3.0,9.0,51,0.00,,,0.00,WeatherCatV1.02B3,2013-02-05 17:33:00,
2013-02-05 11:38:00,57.1,38.6,30.05,South,188,6.0,6.0,50,0.00,,,0.00,WeatherCatV1.02B3,2013-02-05 17:38:00,
2013-02-05 11:43:00,57.4,38.9,30.05,WSW,243,8.0,8.0,50,0.00,,,0.00,WeatherCatV1.02B3,2013-02-05 17:43:00,
2013-02-05 11:48:00,57.7,38.7,30.05,SW,236,4.0,6.0,49,0.00,,,0.00,WeatherCatV1.02B3,2013-02-05 17:48:00,
2013-02-05 11:53:00,58.1,39.6,30.04,NW,325,3.0,8.0,50,0.00,,,0.00,WeatherCatV1.02B3,2013-02-05 17:53:00,
2013-02-05 11:58:00,58.4,39.3,30.04,WSW,250,2.0,7.0,49,0.00,,,0.00,WeatherCatV1.02B3,2013-02-05 17:58:00,
2013-02-05 12:03:00,58.9,39.8,30.04,West,263,4.0,6.0,49,0.00,,,0.00,WeatherCatV1.02B3,2013-02-05 18:03:00,
2013-02-05 12:08:00,59.3,39.1,30.04,NW,313,6.0,10.0,47,0.00,,,0.00,WeatherCatV1.02B3,2013-02-05 18:08:00,
2013-02-05 12:13:00,59.7,38.9,30.04,West,259,9.0,11.0,46,0.00,,,0.00,WeatherCatV1.02B3,2013-02-05 18:13:00,
2013-02-05 12:18:00,60.1,39.2,30.03,WNW,286,4.0,7.0,46,0.00,,,0.00,WeatherCatV1.02B3,2013-02-05 18:18:00,
2013-02-05 12:23:00,60.6,39.1,30.04,WSW,252,5.0,7.0,45,0.00,,,0.00,WeatherCatV1.02B3,2013-02-05 18:23:00,
2013-02-05 12:28:00,61.0,38.9,30.03,NW,310,11.0,11.0,44,0.00,,,0.00,WeatherCatV1.02B3,2013-02-05 18:28:00,
2013-02-05 12:33:00,61.3,38.0,30.03,West,277,7.0,14.0,42,0.00,,,0.00,WeatherCatV1.02B3,2013-02-05 18:33:00,
2013-02-05 12:38:00,61.7,37.1,30.03,WSW,242,2.0,7.0,40,0.00,,,0.00,WeatherCatV1.02B3,2013-02-05 18:38:00,
2013-02-05 12:43:00,62.0,36.8,30.03,WNW,298,9.0,15.0,39,0.00,,,0.00,WeatherCatV1.02B3,2013-02-05 18:43:00,
2013-02-05 12:48:00,62.2,35.6,30.03,West,273,7.0,13.0,37,0.00,,,0.00,WeatherCatV1.02B3,2013-02-05 18:48:00,
2013-02-05 12:53:00,62.6,36.6,30.03,WNW,303,5.0,8.0,38,0.00,,,0.00,WeatherCatV1.02B3,2013-02-05 18:53:00,
2013-02-05 12:58:00,62.8,35.4,30.02,WSW,243,4.0,16.0,36,0.00,,,0.00,WeatherCatV1.02B3,2013-02-05 18:58:00,
2013-02-05 13:03:00,62.9,35.5,30.02,WNW,286,4.0,9.0,36,0.00,,,0.00,WeatherCatV1.02B3,2013-02-05 19:03:00,
2013-02-05 13:08:00,62.7,34.7,30.03,West,276,9.0,10.0,35,0.00,,,0.00,WeatherCatV1.02B3,2013-02-05 19:08:00,
2013-02-05 13:13:00,62.7,35.4,30.02,WNW,285,7.0,10.0,36,0.00,,,0.00,WeatherCatV1.02B3,2013-02-05 19:13:00,
2013-02-05 13:18:00,62.7,34.7,30.02,West,259,4.0,16.0,35,0.00,,,0.00,WeatherCatV1.02B3,2013-02-05 19:18:00,
2013-02-05 13:23:00,62.7,35.4,30.02,NW,306,3.0,8.0,36,0.00,,,0.00,WeatherCatV1.02B3,2013-02-05 19:23:00,
2013-02-05 13:28:00,63.1,35.7,30.02,WNW,300,4.0,11.0,36,0.00,,,0.00,WeatherCatV1.02B3,2013-02-05 19:28:00,
2013-02-05 13:33:00,63.3,36.6,30.02,NNW,342,3.0,8.0,37,0.00,,,0.00,WeatherCatV1.02B3,2013-02-05 19:33:00,
2013-02-05 13:38:00,63.6,35.4,30.02,WNW,287,7.0,13.0,35,0.00,,,0.00,WeatherCatV1.02B3,2013-02-05 19:38:00,
2013-02-05 13:43:00,63.6,35.4,30.02,NW,325,7.0,7.0,35,0.00,,,0.00,WeatherCatV1.02B3,2013-02-05 19:43:00,
2013-02-05 13:48:00,63.2,34.4,30.02,WNW,289,9.0,11.0,34,0.00,,,0.00,WeatherCatV1.02B3,2013-02-05 19:48:00,
2013-02-05 13:53:00,63.2,35.1,30.02,WSW,253,3.0,8.0,35,0.00,,,0.00,WeatherCatV1.02B3,2013-02-05 19:53:00,
2013-02-05 13:58:00,63.1,35.0,30.02,WNW,294,7.0,11.0,35,0.00,,,0.00,WeatherCatV1.02B3,2013-02-05 19:58:00,
2013-02-05 14:03:00,62.8,35.4,30.02,NNW,333,8.0,10.0,36,0.00,,,0.00,WeatherCatV1.02B3,2013-02-05 20:03:00,
2013-02-05 14:08:00,62.6,35.3,30.02,WSW,248,5.0,8.0,36,0.00,,,0.00,WeatherCatV1.02B3,2013-02-05 20:08:00,
2013-02-05 14:13:00,62.9,36.2,30.02,NW,311,9.0,9.0,37,0.00,,,0.00,WeatherCatV1.02B3,2013-02-05 20:13:00,
2013-02-05 14:18:00,62.8,35.4,30.02,NNW,327,5.0,12.0,36,0.00,,,0.00,WeatherCatV1.02B3,2013-02-05 20:18:00,
2013-02-05 14:23:00,62.7,34.7,30.02,NNW,335,8.0,12.0,35,0.00,,,0.00,WeatherCatV1.02B3,2013-02-05 20:23:00,
2013-02-05 14:28:00,62.4,34.4,30.02,NW,321,9.0,14.0,35,0.00,,,0.00,WeatherCatV1.02B3,2013-02-05 20:28:00,
2013-02-05 14:33:00,62.1,35.5,30.02,NNW,331,7.0,9.0,37,0.00,,,0.00,WeatherCatV1.02B3,2013-02-05 20:33:00,
2013-02-05 14:38:00,61.7,35.8,30.02,NW,320,4.0,10.0,38,0.00,,,0.00,WeatherCatV1.02B3,2013-02-05 20:38:00,
2013-02-05 14:43:00,61.7,35.2,30.03,NW,318,4.0,13.0,37,0.00,,,0.00,WeatherCatV1.02B3,2013-02-05 20:43:00,
2013-02-05 14:48:00,61.8,36.6,30.03,NNW,346,8.0,8.0,39,0.00,,,0.00,WeatherCatV1.02B3,2013-02-05 20:48:00,
2013-02-05 14:53:00,61.6,35.1,30.03,NW,317,8.0,12.0,37,0.00,,,0.00,WeatherCatV1.02B3,2013-02-05 20:53:00,
2013-02-05 14:58:00,61.2,36.0,30.03,NW,320,6.0,12.0,39,0.00,,,0.00,WeatherCatV1.02B3,2013-02-05 20:58:00,
2013-02-05 15:03:00,61.0,34.5,30.03,NW,319,6.0,11.0,37,0.00,,,0.00,WeatherCatV1.02B3,2013-02-05 21:03:00,
2013-02-05 15:08:00,60.8,34.4,30.03,NW,325,11.0,12.0,37,0.00,,,0.00,WeatherCatV1.02B3,2013-02-05 21:08:00,
2013-02-05 15:13:00,60.7,33.6,30.04,WNW,288,3.0,9.0,36,0.00,,,0.00,WeatherCatV1.02B3,2013-02-05 21:13:00,
2013-02-05 15:18:00,60.9,35.1,30.03,WSW,252,3.0,5.0,38,0.00,,,0.00,WeatherCatV1.02B3,2013-02-05 21:18:00,
2013-02-05 15:23:00,61.1,34.6,30.03,WNW,294,6.0,8.0,37,0.00,,,0.00,WeatherCatV1.02B3,2013-02-05 21:23:00,
2013-02-05 15:28:00,61.2,35.4,30.03,NW,311,5.0,11.0,38,0.00,,,0.00,WeatherCatV1.02B3,2013-02-05 21:28:00,
2013-02-05 15:33:00,61.1,35.3,30.04,WSW,255,10.0,12.0,38,0.00,,,0.00,WeatherCatV1.02B3,2013-02-05 21:33:00,
2013-02-05 15:38:00,60.9,35.1,30.03,NW,322,3.0,9.0,38,0.00,,,0.00,WeatherCatV1.02B3,2013-02-05 21:38:00,
2013-02-05 15:43:00,60.7,35.6,30.04,WNW,296,4.0,8.0,39,0.00,,,0.00,WeatherCatV1.02B3,2013-02-05 21:43:00,
2013-02-05 15:48:00,60.8,35.7,30.03,NW,304,3.0,6.0,39,0.00,,,0.00,WeatherCatV1.02B3,2013-02-05 21:48:00,
2013-02-05 15:53:00,60.8,37.0,30.03,WNW,295,7.0,7.0,41,0.00,,,0.00,WeatherCatV1.02B3,2013-02-05 21:53:00,
2013-02-05 15:58:00,60.7,36.2,30.03,NNW,329,5.0,8.0,40,0.00,,,0.00,WeatherCatV1.02B3,2013-02-05 21:58:00,
2013-02-05 16:03:00,60.3,35.2,30.03,NNW,340,8.0,10.0,39,0.00,,,0.00,WeatherCatV1.02B3,2013-02-05 22:03:00,
2013-02-05 16:08:00,59.9,35.5,30.04,NNW,339,6.0,8.0,40,0.00,,,0.00,WeatherCatV1.02B3,2013-02-05 22:08:00,
2013-02-05 16:13:00,59.6,35.9,30.03,NW,313,2.0,7.0,41,0.00,,,0.00,WeatherCatV1.02B3,2013-02-05 22:13:00,
2013-02-05 16:18:00,59.4,35.7,30.03,NW,308,3.0,5.0,41,0.00,,,0.00,WeatherCatV1.02B3,2013-02-05 22:18:00,
2013-02-05 16:23:00,59.5,35.8,30.03,NW,306,3.0,5.0,41,0.00,,,0.00,WeatherCatV1.02B3,2013-02-05 22:23:00,
2013-02-05 16:28:00,59.4,35.7,30.03,NW,321,5.0,7.0,41,0.00,,,0.00,WeatherCatV1.02B3,2013-02-05 22:28:00,
2013-02-05 16:33:00,59.1,35.4,30.04,NW,324,3.0,6.0,41,0.00,,,0.00,WeatherCatV1.02B3,2013-02-05 22:33:00,
2013-02-05 16:38:00,58.9,35.8,30.04,NNW,345,3.0,7.0,42,0.00,,,0.00,WeatherCatV1.02B3,2013-02-05 22:38:00,
2013-02-05 16:43:00,58.6,35.6,30.04,WNW,298,2.0,5.0,42,0.00,,,0.00,WeatherCatV1.02B3,2013-02-05 22:43:00,
2013-02-05 16:48:00,58.3,35.3,30.04,NW,311,4.0,5.0,42,0.00,,,0.00,WeatherCatV1.02B3,2013-02-05 22:48:00,
2013-02-05 16:53:00,58.0,35.0,30.04,NW,309,1.0,6.0,42,0.00,,,0.00,WeatherCatV1.02B3,2013-02-05 22:53:00,
2013-02-05 16:58:00,57.6,34.1,30.04,NW,315,2.0,7.0,41,0.00,,,0.00,WeatherCatV1.02B3,2013-02-05 22:58:00,
2013-02-05 17:03:00,57.3,34.4,30.04,NW,311,3.0,4.0,42,0.00,,,0.00,WeatherCatV1.02B3,2013-02-05 23:03:00,
2013-02-05 17:08:00,57.0,34.1,30.04,NW,309,2.0,6.0,42,0.00,,,0.00,WeatherCatV1.02B3,2013-02-05 23:08:00,
2013-02-05 17:13:00,56.7,33.9,30.04,NW,315,2.0,3.0,42,0.00,,,0.00,WeatherCatV1.02B3,2013-02-05 23:13:00,
2013-02-05 17:18:00,56.4,33.6,30.04,WNW,299,2.0,3.0,42,0.00,,,0.00,WeatherCatV1.02B3,2013-02-05 23:18:00,
2013-02-05 17:23:00,56.1,33.9,30.04,NW,326,0.0,3.0,43,0.00,,,0.00,WeatherCatV1.02B3,2013-02-05 23:23:00,
2013-02-05 17:28:00,55.8,34.2,30.05,NW,323,1.0,2.0,44,0.00,,,0.00,WeatherCatV1.02B3,2013-02-05 23:28:00,
2013-02-05 17:33:00,55.4,34.4,30.05,NW,318,1.0,3.0,45,0.00,,,0.00,WeatherCatV1.02B3,2013-02-05 23:33:00,
2013-02-05 17:38:00,55.0,34.1,30.05,NW,318,2.0,3.0,45,0.00,,,0.00,WeatherCatV1.02B3,2013-02-05 23:38:00,
2013-02-05 17:43:00,54.6,34.2,30.05,NNW,341,2.0,3.0,46,0.00,,,0.00,WeatherCatV1.02B3,2013-02-05 23:43:00,
2013-02-05 17:48:00,54.2,33.9,30.05,NNW,342,2.0,3.0,46,0.00,,,0.00,WeatherCatV1.02B3,2013-02-05 23:48:00,
2013-02-05 17:53:00,53.7,34.0,30.05,NNW,342,2.0,2.0,47,0.00,,,0.00,WeatherCatV1.02B3,2013-02-05 23:53:00,
2013-02-05 17:58:00,53.3,33.6,30.05,NNW,342,0.0,1.0,47,0.00,,,0.00,WeatherCatV1.02B3,2013-02-05 23:58:00,
2013-02-05 18:03:00,52.9,33.7,30.06,NNW,342,1.0,1.0,48,0.00,,,0.00,WeatherCatV1.02B3,2013-02-06 00:03:00,
2013-02-05 18:08:00,52.6,34.0,30.06,NNW,342,0.0,1.0,49,0.00,,,0.00,WeatherCatV1.02B3,2013-02-06 00:08:00,
2013-02-05 18:13:00,51.9,33.8,30.06,NNW,342,1.0,2.0,50,0.00,,,0.00,WeatherCatV1.02B3,2013-02-06 00:13:00,
2013-02-05 18:18:00,50.8,33.8,30.06,NNW,342,0.0,1.0,52,0.00,,,0.00,WeatherCatV1.02B3,2013-02-06 00:18:00,
2013-02-05 18:22:00,49.4,33.9,30.06,NNW,342,0.0,0.0,55,0.00,,,0.00,WeatherCatV1.02B3,2013-02-06 00:22:00,
2013-02-05 18:27:00,48.4,33.9,30.07,NNW,342,0.0,0.0,57,0.00,,,0.00,WeatherCatV1.02B3,2013-02-06 00:27:00,
2013-02-05 18:32:00,47.7,34.1,30.07,NNW,342,0.0,0.0,59,0.00,,,0.00,WeatherCatV1.02B3,2013-02-06 00:32:00,
2013-02-05 18:37:00,46.7,33.6,30.07,NNW,342,0.0,0.0,60,0.00,,,0.00,WeatherCatV1.02B3,2013-02-06 00:37:00,
2013-02-05 18:42:00,45.8,33.1,30.07,NNW,342,0.0,0.0,61,0.00,,,0.00,WeatherCatV1.02B3,2013-02-06 00:42:00,
2013-02-05 18:47:00,45.0,33.2,30.07,NNW,342,0.0,0.0,63,0.00,,,0.00,WeatherCatV1.02B3,2013-02-06 00:47:00,
2013-02-05 18:52:00,44.3,32.9,30.07,NNW,342,0.0,0.0,64,0.00,,,0.00,WeatherCatV1.02B3,2013-02-06 00:52:00,
2013-02-05 18:57:00,43.6,33.0,30.07,NNW,342,0.0,0.0,66,0.00,,,0.00,WeatherCatV1.02B3,2013-02-06 00:57:00,
2013-02-05 19:02:00,42.8,32.6,30.07,NNW,342,0.0,0.0,67,0.00,,,0.00,WeatherCatV1.02B3,2013-02-06 01:02:00,
2013-02-05 19:07:00,42.2,32.8,30.08,NNW,342,0.0,0.0,69,0.00,,,0.00,WeatherCatV1.02B3,2013-02-06 01:07:00,
2013-02-05 19:12:00,41.8,32.7,30.08,NNW,342,0.0,0.0,70,0.00,,,0.00,WeatherCatV1.02B3,2013-02-06 01:12:00,
2013-02-05 19:17:00,41.2,32.5,30.08,NNW,342,0.0,0.0,71,0.00,,,0.00,WeatherCatV1.02B3,2013-02-06 01:17:00,
2013-02-05 19:22:00,40.7,32.4,30.08,NNW,342,0.0,0.0,72,0.00,,,0.00,WeatherCatV1.02B3,2013-02-06 01:22:00,
2013-02-05 19:27:00,40.3,32.3,30.09,NNW,342,0.0,0.0,73,0.00,,,0.00,WeatherCatV1.02B3,2013-02-06 01:27:00,
2013-02-05 19:32:00,39.8,31.9,30.09,NNW,342,0.0,1.0,73,0.00,,,0.00,WeatherCatV1.02B3,2013-02-06 01:32:00,
2013-02-05 19:37:00,39.4,31.8,30.09,NNW,342,0.0,0.0,74,0.00,,,0.00,WeatherCatV1.02B3,2013-02-06 01:37:00,
2013-02-05 19:42:00,38.9,31.7,30.09,NNW,342,0.0,0.0,75,0.00,,,0.00,WeatherCatV1.02B3,2013-02-06 01:42:00,
2013-02-05 19:47:00,38.7,31.8,30.09,NNW,342,0.0,0.0,76,0.00,,,0.00,WeatherCatV1.02B3,2013-02-06 01:47:00,
2013-02-05 19:52:00,38.4,31.8,30.10,NNW,342,0.0,0.0,77,0.00,,,0.00,WeatherCatV1.02B3,2013-02-06 01:52:00,
2013-02-05 19:57:00,38.0,31.4,30.10,NNW,342,0.0,0.0,77,0.00,,,0.00,WeatherCatV1.02B3,2013-02-06 01:57:00,
2013-02-05 20:02:00,37.9,31.3,30.10,NNW,342,0.0,0.0,77,0.00,,,0.00,WeatherCatV1.02B3,2013-02-06 02:02:00,
2013-02-05 20:07:00,37.6,31.4,30.10,NNW,342,0.0,0.0,78,0.00,,,0.00,WeatherCatV1.02B3,2013-02-06 02:07:00,
2013-02-05 20:12:00,37.4,31.2,30.10,NNW,342,0.0,0.0,78,0.00,,,0.00,WeatherCatV1.02B3,2013-02-06 02:12:00,
2013-02-05 20:17:00,37.1,30.9,30.10,NNW,342,0.0,0.0,78,0.00,,,0.00,WeatherCatV1.02B3,2013-02-06 02:17:00,
2013-02-05 20:22:00,36.7,30.8,30.10,NNW,342,0.0,0.0,79,0.00,,,0.00,WeatherCatV1.02B3,2013-02-06 02:22:00,
2013-02-05 20:27:00,36.3,30.7,30.11,NNW,342,0.0,0.0,80,0.00,,,0.00,WeatherCatV1.02B3,2013-02-06 02:27:00,
2013-02-05 20:32:00,36.0,30.4,30.11,NNW,342,0.0,0.0,80,0.00,,,0.00,WeatherCatV1.02B3,2013-02-06 02:32:00,
2013-02-05 20:37:00,35.8,30.6,30.11,NNW,342,0.0,0.0,81,0.00,,,0.00,WeatherCatV1.02B3,2013-02-06 02:37:00,
2013-02-05 20:42:00,35.5,30.3,30.11,NNW,342,0.0,0.0,81,0.00,,,0.00,WeatherCatV1.02B3,2013-02-06 02:42:00,
2013-02-05 20:47:00,35.2,30.3,30.11,NNW,342,0.0,0.0,82,0.00,,,0.00,WeatherCatV1.02B3,2013-02-06 02:47:00,
2013-02-05 20:52:00,35.0,30.1,30.12,NNW,342,0.0,0.0,82,0.00,,,0.00,WeatherCatV1.02B3,2013-02-06 02:52:00,
2013-02-05 20:57:00,34.7,30.1,30.12,NNW,342,0.0,0.0,83,0.00,,,0.00,WeatherCatV1.02B3,2013-02-06 02:57:00,
2013-02-05 21:02:00,34.5,29.9,30.11,NNW,342,0.0,0.0,83,0.00,,,0.00,WeatherCatV1.02B3,2013-02-06 03:02:00,
2013-02-05 21:07:00,34.3,29.7,30.12,NNW,342,1.0,1.0,83,0.00,,,0.00,WeatherCatV1.02B3,2013-02-06 03:07:00,
2013-02-05 21:12:00,34.0,29.4,30.12,NNW,342,0.0,1.0,83,0.00,,,0.00,WeatherCatV1.02B3,2013-02-06 03:12:00,
2013-02-05 21:17:00,33.8,29.5,30.12,NNW,342,0.0,0.0,84,0.00,,,0.00,WeatherCatV1.02B3,2013-02-06 03:17:00,
2013-02-05 21:22:00,33.6,29.6,30.13,NNW,342,0.0,0.0,85,0.00,,,0.00,WeatherCatV1.02B3,2013-02-06 03:22:00,
2013-02-05 21:27:00,33.5,29.8,30.13,NNW,342,0.0,0.0,86,0.00,,,0.00,WeatherCatV1.02B3,2013-02-06 03:27:00,
2013-02-05 21:32:00,33.4,29.7,30.13,NNW,342,0.0,0.0,86,0.00,,,0.00,WeatherCatV1.02B3,2013-02-06 03:32:00,
2013-02-05 21:37:00,33.2,29.2,30.13,NNW,342,0.0,0.0,85,0.00,,,0.00,WeatherCatV1.02B3,2013-02-06 03:37:00,
2013-02-05 21:42:00,33.0,29.0,30.13,NNW,342,0.0,1.0,85,0.00,,,0.00,WeatherCatV1.02B3,2013-02-06 03:42:00,
2013-02-05 21:47:00,32.8,29.1,30.13,NNW,342,0.0,0.0,86,0.00,,,0.00,WeatherCatV1.02B3,2013-02-06 03:47:00,
2013-02-05 21:52:00,32.7,29.3,30.13,NNW,342,0.0,0.0,87,0.00,,,0.00,WeatherCatV1.02B3,2013-02-06 03:52:00,
2013-02-05 21:57:00,32.7,29.3,30.13,NNW,342,0.0,0.0,87,0.00,,,0.00,WeatherCatV1.02B3,2013-02-06 03:57:00,
2013-02-05 22:02:00,32.6,29.2,30.13,NNW,342,0.0,0.0,87,0.00,,,0.00,WeatherCatV1.02B3,2013-02-06 04:02:00,
2013-02-05 22:07:00,32.5,29.1,30.13,NNW,342,0.0,0.0,87,0.00,,,0.00,WeatherCatV1.02B3,2013-02-06 04:07:00,
2013-02-05 22:12:00,32.4,29.0,30.14,NNW,342,0.0,0.0,87,0.00,,,0.00,WeatherCatV1.02B3,2013-02-06 04:12:00,
2013-02-05 22:17:00,32.4,28.7,30.14,NNW,342,0.0,0.0,86,0.00,,,0.00,WeatherCatV1.02B3,2013-02-06 04:17:00,
2013-02-05 22:22:00,32.3,28.9,30.14,NNW,342,0.0,0.0,87,0.00,,,0.00,WeatherCatV1.02B3,2013-02-06 04:22:00,
2013-02-05 22:27:00,32.2,29.1,30.14,NNW,342,0.0,0.0,88,0.00,,,0.00,WeatherCatV1.02B3,2013-02-06 04:27:00,
2013-02-05 22:32:00,32.2,29.1,30.14,NNW,342,0.0,0.0,88,0.00,,,0.00,WeatherCatV1.02B3,2013-02-06 04:32:00,
2013-02-05 22:37:00,32.1,28.7,30.14,NNW,342,0.0,0.0,87,0.00,,,0.00,WeatherCatV1.02B3,2013-02-06 04:37:00,
2013-02-05 22:42:00,32.1,28.7,30.14,NNW,342,0.0,0.0,87,0.00,,,0.00,WeatherCatV1.02B3,2013-02-06 04:42:00,
2013-02-05 22:47:00,32.0,28.9,30.14,NNW,342,0.0,0.0,88,0.00,,,0.00,WeatherCatV1.02B3,2013-02-06 04:47:00,
2013-02-05 22:52:00,31.9,28.8,30.14,NNW,342,0.0,0.0,88,0.00,,,0.00,WeatherCatV1.02B3,2013-02-06 04:52:00,
2013-02-05 22:57:00,31.9,28.8,30.14,NNW,342,0.0,1.0,88,0.00,,,0.00,WeatherCatV1.02B3,2013-02-06 04:57:00,
2013-02-05 23:00:00,31.9,28.8,30.14,NNW,342,1.0,2.0,88,0.00,,,0.00,WeatherCatV1.02B3,2013-02-06 05:00:00,
2013-02-05 23:05:00,31.9,28.8,30.14,NNE,22,3.0,3.0,88,0.00,,,0.00,WeatherCatV1.02B3,2013-02-06 05:05:00,
2013-02-05 23:10:00,32.4,29.8,30.14,NE,38,3.0,4.0,90,0.00,,,0.00,WeatherCatV1.02B3,2013-02-06 05:10:00,
2013-02-05 23:15:00,33.4,31.3,30.14,ENE,66,3.0,4.0,92,0.00,,,0.00,WeatherCatV1.02B3,2013-02-06 05:15:00,
2013-02-05 23:20:00,34.8,32.2,30.14,NE,46,4.0,5.0,90,0.00,,,0.00,WeatherCatV1.02B3,2013-02-06 05:20:00,
2013-02-05 23:25:00,36.4,32.9,30.14,NE,44,4.0,6.0,87,0.00,,,0.00,WeatherCatV1.02B3,2013-02-06 05:25:00,
2013-02-05 23:30:00,37.8,33.1,30.14,NE,46,3.0,5.0,83,0.00,,,0.00,WeatherCatV1.02B3,2013-02-06 05:30:00,
2013-02-05 23:35:00,38.8,33.2,30.14,NE,51,3.0,8.0,80,0.00,,,0.00,WeatherCatV1.02B3,2013-02-06 05:35:00,
2013-02-05 23:40:00,39.5,33.2,30.14,ENE,57,4.0,7.0,78,0.00,,,0.00,WeatherCatV1.02B3,2013-02-06 05:40:00,
2013-02-05 23:45:00,39.9,33.0,30.14,NE,36,3.0,5.0,76,0.00,,,0.00,WeatherCatV1.02B3,2013-02-06 05:45:00,
2013-02-05 23:50:00,40.2,32.9,30.14,NE,46,2.0,5.0,75,0.00,,,0.00,WeatherCatV1.02B3,2013-02-06 05:50:00,
2013-02-05 23:54:00,40.4,32.8,30.14,NE,44,1.0,4.0,74,0.00,,,0.00,WeatherCatV1.02B3,2013-02-06 05:54:00,
2013-02-05 23:59:00,40.3,32.3,30.15,ENE,60,2.0,3.0,73,0.00,,,0.00,WeatherCatV1.02B3,2013-02-06 05:59:00,